Location: Hoyos del Collado
(40.3594°N, 5.2003°W)
Time: 12:28:31
(UTC+00:00)

ISS - Pass Details

Date: 30 June 2024
Orbit: 410 x 424 km, 51.6° (Epoch: 13 July)

Event Time Altitude Azimuth Distance (km) Brightness Sun altitude
Rises 04:08:54 0° 299° (WNW) 2,350 -0.2 -7.8°
Reaches altitude 10° 04:12:03 10° 331° (NNW) 1,492 -0.8 -7.4°
Maximum altitude 04:13:30 12° 357° (N) 1,367 -0.6 -7.2°
Drops below altitude 10° 04:14:56 10° 22° (NNE) 1,497 0.1 -7.0°
Sets 04:18:07 0° 55° (NE) 2,366 2.8 -6.5°
